Lakehurst NAS, NJ

11:01 AM EDT on October 19, 2017 (GMT -0400)
Lakehurst Naes

Weather History for KNEL - December, 2012

Change the Weather History Date:

Friday, December 14, 2012

  Actual Average Record
Temperature  
Mean Temperature 34 °F -  
Max Temperature 50 °F 45 °F 55 °F (2001)
Min Temperature 19 °F 33 °F 12 °F (2005)
Degree Days  
Heating Degree Days 30    
Moisture  
Dew Point 24 °F    
Average Humidity 74    
Maximum Humidity 96    
Minimum Humidity 39    
Precipitation  
Precipitation 0.00 in - - ()
Sea Level Pressure  
Sea Level Pressure 30.26 in    
Wind  
Wind Speed 2 mph (West)    
Max Wind Speed 14 mph    
Max Gust Speed -    
Averages and records for this station are not official NWS values.
T = Trace of Precipitation, MM = Missing Value Source: NWS Daily Summary

Daily Weather History Graph

Daily Weather History Graph

Search for Another Location

Airport or City:

Trip Planner

Search our weather history database for the weather conditions in past years. The results will help you decide how hot, cold, wet, or windy it might be!

Date:

Astronomy

Dec. 14, 2012 Rise Set
Actual Time 7:11 AM EST 4:32 PM EST
Civil Twilight 6:41 AM EST 5:03 PM EST
Nautical Twilight 6:07 AM EST 5:37 PM EST
Astronomical Twilight 5:34 AM EST 6:10 PM EST
Moon 8:14 AM EST (12/14) 6:22 PM EST (12/14)
Length of Visible Light 10h 22m
Length of Day
9h 21m
Waxing Crescent, 3% of the Moon is Illuminated
Dec 14
Waxing Crescent
Dec 20
First Quarter
Dec 28
Full
Jan 4
Last Quarter
Jan 11
New

Hourly Weather History & Observations

Time (EST) Temp. Windchill Dew Point Humidity Pressure Visibility Wind Dir Wind Speed Gust Speed Precip Events Conditions
12:00 AM 23.0 °F - 21.0 °F 92% 30.33 in - Calm Calm - N/A   Clear
1:00 AM 21.9 °F - 21.0 °F 96% 30.32 in - Calm Calm - N/A   Clear
2:00 AM 21.9 °F - 19.9 °F 92% 30.32 in - Calm Calm - N/A   Clear
3:00 AM 21.9 °F - 19.9 °F 92% 30.31 in - Calm Calm - N/A   Clear
4:00 AM 21.9 °F - 19.9 °F 92% 30.30 in - Calm Calm - N/A   Clear
5:00 AM 21.0 °F - 18.0 °F 88% 30.29 in - Calm Calm - N/A   Clear
6:00 AM 19.9 °F - 17.1 °F 89% 30.29 in - Calm Calm - N/A   Clear
7:00 AM 19.9 °F - 17.1 °F 89% 30.30 in - Calm Calm - N/A   Clear
8:00 AM 26.1 °F - 23.0 °F 88% 30.30 in - Calm Calm - N/A   Clear
9:00 AM 34.0 °F - 30.0 °F 85% 30.29 in - Calm Calm - N/A   Clear
10:00 AM 41.0 °F 35.2 °F 28.0 °F 60% 30.29 in - West 9.2 mph - N/A   Clear
11:00 AM 45.0 °F 39.7 °F 27.0 °F 49% 30.26 in - WSW 10.4 mph - N/A   Clear
12:00 PM 46.9 °F - 26.1 °F 44% 30.23 in - WSW 13.8 mph - N/A   Clear
2:00 PM 50.0 °F - 26.1 °F 39% 30.18 in - West 12.7 mph - N/A   Clear
3:00 PM 50.0 °F - 26.1 °F 39% 30.17 in - West 10.4 mph - N/A   Clear
4:00 PM 46.9 °F - 27.0 °F 46% 30.18 in - West 4.6 mph - N/A   Clear
5:00 PM 42.1 °F 39.2 °F 27.0 °F 55% 30.18 in - West 4.6 mph - N/A   Clear
6:00 PM 32.0 °F 27.5 °F 25.0 °F 75% 30.20 in - WNW 4.6 mph - N/A   Clear
7:00 PM 30.0 °F 25.2 °F 26.1 °F 85% 30.21 in - WNW 4.6 mph - N/A   Clear
8:00 PM 39.0 °F 34.8 °F 25.0 °F 57% 30.23 in - WNW 5.8 mph - N/A   Clear
9:00 PM 32.0 °F 28.7 °F 25.0 °F 75% 30.24 in - NW 3.5 mph - N/A   Clear
10:00 PM 27.0 °F - 25.0 °F 92% 30.23 in - Calm Calm - N/A   Clear